Millington, TN

1:56 PM CST on February 25, 2018 (GMT -0600)
Millington Municipal

Weather History for KNQA - March, 2013

Change the Weather History Date:

Thursday, March 14, 2013

  Actual Average Record
Temperature  
Mean Temperature 45 °F -  
Max Temperature 62 °F 58 °F 84 °F (2012)
Min Temperature 28 °F 41 °F 28 °F (2005)
Degree Days  
Heating Degree Days 20    
Moisture  
Dew Point 28 °F    
Average Humidity 62    
Maximum Humidity 93    
Minimum Humidity 29    
Precipitation  
Precipitation 0.00 in - - ()
Sea Level Pressure  
Sea Level Pressure 30.33 in    
Wind  
Wind Speed 3 mph (SE)    
Max Wind Speed 13 mph    
Max Gust Speed -    
Visibility 10 miles    
Events      
Averages and records for this station are not official NWS values.
T = Trace of Precipitation, MM = Missing Value Source: NWS Daily Summary

Daily Weather History Graph

Daily Weather History Graph

Search for Another Location

Airport or City:

Trip Planner

Search our weather history database for the weather conditions in past years. The results will help you decide how hot, cold, wet, or windy it might be!

Date:

Astronomy

Mar. 14, 2013 Rise Set
Actual Time 7:11 AM CDT 7:06 PM CDT
Civil Twilight 6:45 AM CDT 7:31 PM CDT
Nautical Twilight 6:16 AM CDT 8:01 PM CDT
Astronomical Twilight 5:46 AM CDT 8:31 PM CDT
Moon 8:32 AM CDT (3/14) 10:14 PM CDT (3/14)
Length of Visible Light 12h 45m
Length of Day
11h 55m
Waxing Crescent, 9% of the Moon is Illuminated
Mar 14
Waxing Crescent
Mar 19
First Quarter
Mar 27
Full
Apr 2
Last Quarter
Apr 10
New

Hourly Weather History & Observations

Time (CDT) Temp. Windchill Dew Point Humidity Pressure Visibility Wind Dir Wind Speed Gust Speed Precip Events Conditions
12:55 AM 32.0 °F - 26.6 °F 80% 30.42 in 10.0 mi Calm Calm - N/A   Clear
1:55 AM 30.2 °F 26.7 °F 24.8 °F 80% 30.41 in 10.0 mi East 3.5 mph - N/A   Clear
2:55 AM 28.4 °F 24.6 °F 24.8 °F 86% 30.40 in 10.0 mi East 3.5 mph - N/A   Clear
3:15 AM 28.4 °F - 24.8 °F 86% 30.39 in 10.0 mi Calm Calm - N/A   Clear
3:35 AM 33.8 °F 30.8 °F 21.2 °F 60% 30.40 in 10.0 mi ENE 3.5 mph - N/A   Clear
3:55 AM 30.2 °F - 24.8 °F 80% 30.40 in 10.0 mi Calm Calm - N/A   Clear
4:15 AM 30.2 °F - 24.8 °F 80% 30.40 in 10.0 mi Calm Calm - N/A   Clear
4:35 AM 30.2 °F - 23.0 °F 75% 30.41 in 10.0 mi Calm Calm - N/A   Clear
4:55 AM 28.4 °F - 26.6 °F 93% 30.41 in 10.0 mi Calm Calm - N/A   Clear
5:15 AM 28.4 °F - 24.8 °F 86% 30.41 in 10.0 mi Calm Calm - N/A   Clear
5:35 AM 28.4 °F - 24.8 °F 86% 30.41 in 10.0 mi Calm Calm - N/A   Clear
5:55 AM 30.2 °F - 24.8 °F 80% 30.40 in 10.0 mi Calm Calm - N/A   Clear
6:55 AM 30.2 °F - 24.8 °F 80% 30.42 in 10.0 mi Calm Calm - N/A   Scattered Clouds
7:55 AM 28.4 °F 24.6 °F 24.8 °F 86% 30.43 in 10.0 mi East 3.5 mph - N/A   Scattered Clouds
8:55 AM 35.6 °F 30.7 °F 26.6 °F 70% 30.42 in 10.0 mi SE 5.8 mph - N/A   Partly Cloudy
9:55 AM 42.8 °F 39.3 °F 26.6 °F 53% 30.42 in 10.0 mi ESE 5.8 mph - N/A   Partly Cloudy
10:55 AM 46.4 °F 45.2 °F 26.6 °F 46% 30.41 in 10.0 mi Variable 3.5 mph - N/A   Partly Cloudy
11:55 AM 51.8 °F - 24.8 °F 35% 30.39 in 10.0 mi Variable 6.9 mph - N/A   Scattered Clouds
12:55 PM 53.6 °F - 24.8 °F 33% 30.35 in 10.0 mi SSE 8.1 mph - N/A   Scattered Clouds
1:55 PM 57.2 °F - 26.6 °F 31% 30.31 in 10.0 mi South 8.1 mph - N/A   Scattered Clouds
2:55 PM 60.8 °F - 28.4 °F 29% 30.26 in 10.0 mi South 8.1 mph - N/A   Scattered Clouds
3:55 PM 62.6 °F - 30.2 °F 30% 30.24 in 10.0 mi SW 12.7 mph - N/A   Scattered Clouds
4:55 PM 60.8 °F - 33.8 °F 36% 30.22 in 10.0 mi SSW 11.5 mph - N/A   Scattered Clouds
5:55 PM 60.8 °F - 35.6 °F 39% 30.20 in 10.0 mi SW 8.1 mph - N/A   Scattered Clouds
6:55 PM 57.2 °F - 35.6 °F 44% 30.19 in 10.0 mi South 4.6 mph - N/A   Scattered Clouds
7:55 PM 55.4 °F - 35.6 °F 47% 30.19 in 10.0 mi South 4.6 mph - N/A   Scattered Clouds
8:55 PM 53.6 °F - 35.6 °F 51% 30.19 in 10.0 mi SE 4.6 mph - N/A   Clear
9:55 PM 48.2 °F - 35.6 °F 62% 30.19 in 10.0 mi SE 4.6 mph - N/A   Clear
10:55 PM 48.2 °F - 35.6 °F 62% 30.18 in 10.0 mi SE 3.5 mph - N/A   Clear
11:55 PM 48.2 °F - 35.6 °F 62% 30.17 in 10.0 mi Calm Calm - N/A   Clear